Regional Weather Roundup
Issued by NWS

Current Version | Previous Version | Text Only | Print | Product List | Glossary On
Versions: 1 2 3 4 5 6 7 8 9 10 11 12 13 14 15 16 17 18 19 20 21 22 23 24 25 26 27 28 29 30 31 32 33 34 35 36 37 38 39 40 41 42 43 44 45 46 47 48 49 50
000
ASUS43 KLOT 271812
RWRIL

ILLINOIS REGIONAL WEATHER ROUNDUP
NATIONAL WEATHER SERVICE CHICAGO/ROMEOVILLE IL
100 PM CDT FRI MAR 27 2015

NOTE: "FAIR" INDICATES FEW OR NO CLOUDS BELOW 12,000 FEET WITH NO
SIGNIFICANT WEATHER AND/OR OBSTRUCTIONS TO VISIBILITY.

* THESE STATIONS ARE NOT UNDER NWS QUALITY CONTROL. THEY ALSO MAY NOT
  REPORT WEATHER SUCH AS PRECIPITATION OR FOG.

ILZ001-002-007-009-015-016-024-271900-
NORTHWEST ILLINOIS

CITY           SKY/WX    TMP DP  RH WIND       PRES   REMARKS
MOLINE         SUNNY     34   9  35 NW15G21   30.22F WCI  24
6HR MIN TEMP:  26; 6HR MAX TEMP:  34;

STERLING*      SUNNY     34  10  37 N14G20    30.22S WCI  24
SAVANNA*       SUNNY     33   5  31 NE12G20   30.22F WCI  24
$$

ILZ003-004-008-010-011-017-018-271900-
NORTH CENTRAL ILLINOIS

CITY           SKY/WX    TMP DP  RH WIND       PRES   REMARKS
ROCKFORD       MOSUNNY   32   5  32 N18       30.21S WCI  20
6HR MIN TEMP:  21; 6HR MAX TEMP:  32;

FREEPORT*      MOSUNNY   28   9  44 N10G17    30.22F WCI  19
ROCHELLE*      MOSUNNY   29  11  46 N16       30.19S WCI  18
DE KALB*       SUNNY     29   8  42 N21       30.18R WCI  15
PERU*          MOSUNNY   31  10  41 N13G21    30.20S WCI  22
$$

ILZ005-006-012>014-019>023-271900-
NORTHEAST ILLINOIS

CITY           SKY/WX    TMP DP  RH WIND       PRES   REMARKS
CHICAGO-OHARE  MOSUNNY   29  10  45 NE13      30.16S WCI  19
6HR MIN TEMP:  22; 6HR MAX TEMP:  30; 6HR PCP: TRACE;

CHICAGO-MIDWAY PTSUNNY   29  11  47 NE14G21   30.17S WCI  18
6HR MIN TEMP:  25; 6HR MAX TEMP:  31; 6HR PCP: TRACE;

AURORA         SUNNY     32   7  35 N12G22    30.17S WCI  23
6HR MIN TEMP:  23; 6HR MAX TEMP:  32;

LANSING*       CLOUDY    28  13  52 N15       30.16S WCI  17
JOLIET*        SUNNY     32   9  37 N14G20    30.17S WCI  22
WAUKEGAN       PTSUNNY   27  12  53 N12G21    30.16F WCI  17
6HR MIN TEMP:  19; 6HR MAX TEMP:  27;

DUPAGE AIRPORT MOSUNNY   30   6  36 VRB7G22   30.16S WCI  23
6HR MIN TEMP:  22; 6HR MAX TEMP:  31;

KANKAKEE*      MOSUNNY   32  13  45 N10       30.15F WCI  23
WHEELING       PTSUNNY   28  10  46 NE15G24   30.19S WCI  16
6HR MIN TEMP:  21; 6HR MAX TEMP:  30;

MORRIS*        SUNNY     32   8  37 N7G16     30.17S WCI  26
ROMEOVILLE*    SUNNY     29   7  39 N12G21    30.17S WCI  20
NORTHERLY ISL    N/A     27  12  53 N20         N/A  WCI  14
$$

LMZ740>746-271900-
SOUTHERN LAKE MICHIGAN

STATION/POSITION SKY/WX   TEMP    WIND        PRES    VSBY  WAVE
                          AIR SEA DIR/SP/G                  HT/PER
                          (F)     (DEG/KT/KT) (MB)    (MI)  (FT/S)
HARRISON CRIB              24     340/ 22/ 28   N/A
BURNHAM HARBOR             28     360/ 12/ 19   N/A
CALUMET HARBOR             26     330/ 17/ 23 1020.4R
BURNS HARBOR               25     340/ 22/ 51 1021.0S
MICHIGAN CITY              24     360/ 20/ 24   N/A
$$

ILZ025>027-034>036-040-047-049-050-058-095>099-271900-
WEST-CENTRAL ILLINOIS

CITY           SKY/WX    TMP DP  RH WIND       PRES   REMARKS
QUINCY         CLOUDY    36  20  52 N10       30.20F WCI  28
GALESBURG*     SUNNY     33  10  37 N12G18    30.20F WCI  24
MACOMB*        SUNNY     36  15  41 N14G22    30.22F WCI  27
JACKSONVILLE*  CLOUDY    38  19  44 N9G17     30.19S WCI  32
PITTSFIELD*    PTSUNNY   37  22  56 N10       30.20F WCI  30
$$

ILZ028>032-037-038-041>044-048-051>054-059>061-271900-
CENTRAL ILLINOIS

CITY           SKY/WX    TMP DP  RH WIND       PRES   REMARKS
PONTIAC        SUNNY     33  12  43 N14G22    30.17S WCI  23
BLOOMINGTON    MOSUNNY   33  14  45 NW17G23   30.16S WCI  22
DECATUR        PTSUNNY   37  14  38 NW16G26   30.15F WCI  28
PEORIA         SUNNY     34   9  35 N9G20     30.19S WCI  27
6HR MIN TEMP:  28; 6HR MAX TEMP:  35;

LACON*         SUNNY     32   8  36 N9G16     30.19F WCI  24
LINCOLN*       SUNNY     37  15  41 N12G26    30.18F WCI  29
SPRINGFIELD    MOSUNNY   38  14  37 NW10G25   30.18F WCI  31
6HR MIN TEMP:  29; 6HR MAX TEMP:  39;

TAYLORVILLE    CLOUDY    34  21  60 N17G24    30.16F WCI  23
$$

ILZ033-039-045-046-055>057-062-063-271900-
EAST-CENTRAL ILLINOIS

CITY           SKY/WX    TMP DP  RH WIND       PRES   REMARKS
CHAMPAIGN      PTSUNNY   33  19  56 N12       30.13F WCI  24
DANVILLE*      FLURRIES  30  24  78 N9        30.11S WCI  21
RANTOUL*       CLOUDY    32  24  70 N13       30.14F WCI  23
MATTOON        CLOUDY    35  19  52 N20G28    30.12S WCI  24
PARIS*         LGT SNOW  32  27  83 N9        30.13R WCI  24
$$

ILZ079-100>102-271900-
SOUTHWEST ILLINOIS

CITY           SKY/WX    TMP DP  RH WIND       PRES   REMARKS
ALTON          CLOUDY    36  18  48 N8        30.19S WCI  29
BELLEVILLE     CLOUDY    38  22  53 N13       30.17S WCI  30
CAHOKIA*       CLOUDY    39  23  52 N15G21    30.19S WCI  31
SPARTA*        CLOUDY    37  24  61 N15       30.17S WCI  27
$$

ILZ064>066-069>071-074>076-080>082-084>086-088>090-092>094-271900-
SOUTH-CENTRAL ILLINOIS

CITY           SKY/WX    TMP DP  RH WIND       PRES   REMARKS
CARBONDALE     CLOUDY    37  27  67 NW15      30.15R WCI  28
6HR MIN TEMP:  34; 6HR MAX TEMP:  39; 6HR PCP: TRACE;

CAIRO*         CLOUDY    39  32  77 NW16      30.14R WCI  30
EFFINGHAM*     PTSUNNY   37  15  41 NW14G22   30.15F WCI  28
MARION         CLOUDY    39  28  65 N14       30.14S WCI  31
MT. VERNON     CLOUDY    37  25  60 N9        30.14F WCI  31
CENTRALIA*     CLOUDY    37  21  53 NW16G22   30.14S WCI  27
SALEM*         CLOUDY    39  25  58 N15G21    30.15S WCI  30
METROPOLIS*    LGT RAIN  39  35  83 NW9       30.11S WCI  33
$$

ILZ067-068-072-073-078-083-087-091-271900-
SOUTHEAST ILLINOIS

CITY           SKY/WX    TMP DP  RH WIND       PRES   REMARKS
LAWRENCEVILLE  CLOUDY    37  24  59 N21       30.12S WCI  26
FLORA*         CLOUDY    38  24  59 N13G21    30.14S WCI  30
FAIRFIELD*     CLOUDY    37  25  61 N12G18    30.12F WCI  30
HARRISBURG*    CLOUDY    38  30  73 N12       30.14S WCI  30
ROBINSON*      CLOUDY    35  24  63 NW15      30.14R WCI  25
CARMI*         CLOUDY    38  27  63 N13G21    30.11S WCI  31
$$

ABBREVIATIONS USED IN REMARKS
   TC - TEMPERATURE IN CELSIUS
  WCI - WIND CHILL INDEX
   HX - HEAT INDEX
  VSB - VISIBILITY
$$




USA.gov is the U.S. government's official web portal to all federal, state and local government web resources and services.